CAPE
1387 1659 1010 337 764 638 522 373 332 501 254 312 249 443 416 538 685 539 417 192 66 16 13 5 0 0 0 0 0 3 10 4
1102 1431 1439 1056 978 214 208 291 226 221 308 175 138 197 359 399 534 477 273 128 37 13 5 0 0 0 0 0 0 1 5 4
887 1095 1118 897 916 691 188 192 192 176 140 83 2 168 288 395 343 252 137 57 10 10 4 1 0 0 0 0 0 11 9 4
546 586 805 955 563 609 481 411 340 386 192 163 122 143 249 367 335 124 74 56 15 8 2 0 0 0 0 0 7 16 22 5
220 64 15 510 682 464 382 636 402 236 178 117 93 117 125 342 299 238 85 4 0 0 0 0 0 0 0 2 7 9 19 5
31 6 2 3 1 31 504 828 676 192 55 40 111 90 88 311 314 176 21 5 0 0 0 5 0 0 0 1 1 13 21 5
4 9 5 3 5 34 69 370 627 159 100 37 70 47 57 99 190 158 27 31 21 2 12 0 0 0 0 0 2 10 12 2
1 10 9 5 1 2 110 186 291 106 36 3 2 0 32 82 185 159 207 102 67 59 32 0 0 0 0 2 4 4 12 3
9 10 9 4 26 10 9 68 10 9 3 2 0 0 3 31 152 194 241 220 233 152 47 0 0 0 0 0 0 1 7 11
2 4 4 12 16 13 9 5 5 1 4 4 0 0 0 0 86 173 237 261 164 86 40 2 0 0 0 0 0 0 3 12
1 5 4 16 20 13 4 4 9 4 3 2 0 0 0 3 81 89 97 118 102 91 55 39 11 0 0 0 0 0 0 0
13 7 5 29 16 14 8 3 3 2 4 0 0 9 21 63 52 25 7 0 45 23 33 11 9 0 0 0 0 0 0 0
11 9 9 31 10 14 19 23 18 1 0 0 4 37 42 50 36 43 1 2 0 9 19 24 0 0 0 0 0 0 0 0
8 9 8 20 16 12 5 3 10 10 6 6 21 21 37 105 140 62 20 8 8 28 64 7 0 0 0 0 0 0 0 0
2 10 15 27 26 17 16 29 51 56 18 3 25 27 40 68 206 83 107 84 109 173 140 65 41 1 0 81 129 140 78 0
21 8 12 24 37 14 10 3 9 12 2 9 58 97 42 2 57 124 98 111 156 188 163 248 221 88 15 3 77 113 112 142
19 15 9 16 33 11 11 0 0 0 0 17 83 111 102 41 6 146 257 223 299 343 314 196 177 180 139 91 56 50 169 74
20 19 13 14 16 15 4 4 3 28 18 23 42 51 51 55 70 192 205 303 310 380 343 255 322 338 210 296 198 119 53 115
19 16 12 11 13 21 13 4 6 44 12 2 2 8 14 59 119 263 254 320 276 291 372 409 455 391 456 323 357 247 225 306
3 4 12 18 13 21 25 23 7 15 30 0 0 0 7 62 229 241 228 285 315 381 437 559 599 686 665 522 446 383 367 372
CIN
-66 -8 -45 -160 -16 -22 -31 -40 -29 -12 -7 -4 -12 -12 -3 -12 -3 -8 -1 -1 -26 -0 -0 -0 -0 -0 -0 -0 -0 -96 -0 -0
-90 -22 -0 -1 -0 -62 -61 -47 -22 -28 -16 -38 -15 -5 -3 -6 -8 -10 -23 -0 -28 -0 -0 -0 -0 -0 -0 -0 -0 -84 -0 -0
-114 -49 -10 -0 -0 -1 -14 -31 -36 -26 -27 -21 -41 -0 -2 -1 -4 -12 -5 -20 -0 -0 -0 -0 -0 -0 -0 -0 -0 -0 -0 -0
-137 -104 -28 -0 -1 -0 -0 -0 -2 -4 -6 -6 -14 -6 -6 -0 -1 -34 -24 -20 -17 -0 -0 -0 -0 -0 -0 -0 -1 -0 -0 -0
-158 -182 -25 -2 -0 -1 -0 -1 -2 -6 -0 -7 -1 -1 -12 -0 -0 -0 -16 -4 -0 -0 -0 -0 -0 -0 -0 -2 -0 -1 -0 -0
-163 -0 -0 -0 -0 -37 -1 -0 -0 -0 -11 -1 -0 -0 -4 -0 -0 -0 -37 -88 -0 -0 -0 -0 -0 -0 -0 -1 -0 -0 -0 -0
-0 -0 -0 -0 -0 -27 -21 -2 -0 -0 -13 -0 -0 -1 -3 -17 -3 -0 -16 -18 -75 -49 -0 -0 -0 -0 -0 -0 -0 -0 -0 -0
-0 -0 -0 -0 -0 -0 -21 -9 -0 -0 -1 -5 -12 -0 -20 -17 -5 -1 -0 -0 -10 -17 -42 -0 -0 -0 -0 -0 -0 -0 -0 -0
-0 -0 -0 -0 -1 -0 -0 -3 -0 -5 -0 -0 -0 -0 -46 -58 -24 -3 -1 -0 -0 -4 -58 -0 -0 -0 -0 -0 -0 -1 -0 -0
-1 -0 -0 -0 -0 -0 -0 -0 -0 -0 -0 -0 -0 -0 -0 -0 -31 -6 -3 -1 -2 -18 -86 -115 -0 -0 -0 -0 -0 -0 -0 -0
-0 -0 -0 -0 -0 -1 -0 -0 -0 -0 -1 -2 -0 -0 -0 -19 -21 -68 -58 -64 -53 -32 -50 -57 -63 -0 -0 -0 -0 -0 -0 -0
-0 -0 -0 -14 -2 -0 -0 -1 -1 -3 -4 -0 -0 -12 -22 -3 -58 -150 -154 -7 -54 -75 -57 -28 -62 -0 -0 -0 -0 -0 -0 -0
-1 -0 -0 -0 -0 -0 -1 -0 -1 -1 -0 -0 -17 -1 -9 -37 -104 -78 -24 -41 -0 -59 -57 -78 -0 -0 -0 -0 -0 -0 -0 -0
-1 -3 -0 -0 -0 -1 -2 -2 -2 -2 -3 -0 -2 -20 -26 -10 -7 -38 -32 -44 -56 -69 -72 -80 -0 -13 -0 -0 -2 -0 -0 -0
-1 -0 -0 -0 -0 -0 -1 -2 -2 -0 -2 -26 -3 -21 -30 -22 -2 -28 -22 -100 -66 -38 -28 -46 -32 -23 -0 -2 -0 -0 -5 -0
-0 -0 -0 -0 -0 -0 -0 -1 -0 -0 -1 -14 -24 -32 -62 -91 -70 -49 -82 -55 -44 -22 -6 -0 -2 -13 -39 -83 -12 -0 -0 -2
-0 -0 -0 -0 -0 -0 -0 -0 -0 -0 -0 -13 -5 -12 -25 -43 -49 -6 -8 -12 -4 -1 -0 -22 -3 -0 -0 -1 -12 -8 -0 -1
-0 -0 -0 -0 -0 -0 -0 -1 -3 -1 -6 -10 -5 -27 -38 -35 -16 -0 -8 -1 -0 -0 -1 -5 -0 -0 -2 -0 -0 -0 -2 -0
-0 -0 -0 -0 -0 -0 -0 -0 -1 -0 -6 -2 -33 -56 -49 -21 -7 -0 -0 -0 -0 -0 -7 -5 -0 -0 -0 -0 -0 -0 -0 -0
-0 -0 -0 -0 -1 -0 -0 -0 -0 -1 -0 -0 -0 -0 -44 -9 -40 -0 -0 -0 -0 -5 -0 -0 -0 -0 -0 -0 -0 -0 -0 -0
Wind_Speed
6 8 9 2 6 10 15 16 18 25 30 24 22 30 28 22 22 24 23 21 21 20 19 18 16 13 9 3 7 10 12 11
6 8 5 9 8 8 5 13 19 20 15 11 15 24 26 20 21 25 22 22 22 20 19 19 17 12 8 4 4 10 14 13
5 8 8 6 8 7 5 5 4 13 15 15 7 10 21 22 20 24 23 21 21 20 19 18 17 12 7 8 9 7 10 10
4 5 9 11 9 7 9 9 7 8 9 13 9 5 13 16 20 23 24 21 20 19 20 19 16 12 8 3 6 7 8 10
5 3 1 8 7 5 4 4 6 5 9 8 10 8 8 9 10 11 12 17 11 14 14 11 14 11 10 8 9 6 8 10
5 4 3 1 1 3 5 6 5 7 8 11 8 7 10 10 9 11 11 10 12 11 9 10 12 13 10 9 8 6 8 9
6 6 4 4 4 2 3 4 4 8 9 12 9 12 11 11 11 11 10 11 11 10 9 11 11 12 8 9 7 7 11 9
7 6 4 5 5 3 4 4 6 7 8 11 17 11 9 12 9 11 10 10 10 8 9 10 9 9 10 9 8 9 9 12
8 6 5 5 6 5 2 4 6 8 9 10 15 16 9 9 8 10 9 9 10 6 7 8 9 9 10 9 8 8 8 10
8 7 5 3 4 5 4 5 5 9 11 9 14 12 10 8 6 6 8 7 7 7 6 7 7 8 8 8 8 8 9 8
10 9 6 6 7 6 8 10 6 9 11 11 14 10 9 7 7 6 6 7 6 8 7 5 5 8 8 7 7 8 8 8
10 8 6 7 6 7 8 9 8 8 9 10 13 9 13 11 9 10 7 6 5 7 7 6 7 7 9 8 6 6 8 7
12 12 8 6 7 7 9 9 9 8 10 13 11 12 14 11 9 9 8 10 9 8 7 8 6 5 5 6 6 6 6 8
12 13 13 9 7 7 7 9 9 9 9 13 14 14 12 9 11 12 14 9 10 9 9 8 7 6 7 7 6 7 9 9
14 14 14 11 10 9 8 8 6 7 8 9 10 12 12 10 9 11 9 7 6 7 8 9 7 8 8 4 3 4 4 8
15 15 13 13 14 11 17 13 12 9 10 10 8 9 8 7 6 6 8 8 9 10 10 8 8 8 7 7 8 7 3 2
15 15 15 16 16 12 12 13 9 7 8 12 11 9 8 10 9 10 10 8 10 11 9 9 7 7 7 7 8 7 7 7
14 17 15 15 14 14 15 16 14 11 11 9 9 8 7 9 11 10 10 9 11 9 8 10 8 7 7 7 7 6 7 8
15 18 17 16 17 18 16 17 17 17 15 11 12 9 7 11 14 11 9 9 8 8 8 9 10 9 9 8 7 8 8 7
18 20 19 20 17 17 18 16 13 12 13 12 11 11 13 15 14 13 13 12 11 10 8 10 11 10 13 10 9 9 9 9
Wind_Direction
213 236 159 79 143 167 197 184 182 180 197 210 205 168 161 157 141 131 130 128 129 131 129 127 125 123 114 133 357 322 116 109
237 210 193 178 170 141 159 162 185 214 188 192 213 151 161 158 141 131 133 132 132 133 129 127 125 120 108 83 273 284 114 126
219 235 205 187 203 167 175 153 189 191 160 174 181 193 165 152 140 132 131 132 132 134 129 124 116 112 123 194 241 124 140 107
205 251 235 215 208 198 189 204 188 166 162 168 125 149 155 151 135 131 130 132 131 131 127 126 147 140 169 219 228 133 109 107
204 202 248 262 216 190 205 193 175 167 161 147 150 167 171 137 135 134 130 136 135 136 139 156 142 148 162 199 113 177 118 110
188 178 147 191 199 249 233 193 202 174 161 167 171 169 158 153 142 145 147 153 151 150 169 137 149 148 190 117 163 134 122 117
187 169 177 180 240 241 230 237 201 150 167 181 193 157 156 149 150 151 159 148 150 171 153 151 152 158 146 153 171 128 127 132
173 169 177 181 193 234 224 213 150 148 152 157 148 130 141 152 153 155 167 164 153 172 146 151 155 149 151 159 159 142 153 143
171 150 175 216 159 142 210 146 147 141 128 123 141 126 131 117 145 168 154 165 159 133 150 153 150 157 152 157 151 157 139 154
164 145 171 177 130 131 122 115 118 139 133 136 104 104 88 88 156 168 152 138 152 140 154 160 152 156 152 160 161 166 157 164
156 147 168 142 133 114 102 104 108 121 118 117 110 123 115 156 179 143 153 142 143 159 165 173 156 167 163 161 170 172 169 178
150 142 159 142 131 121 114 108 100 93 103 121 134 152 168 188 151 147 167 110 166 171 174 170 170 173 170 169 182 180 176 187
161 153 159 142 139 139 130 132 135 134 136 143 166 173 183 176 146 152 126 182 175 165 164 165 181 172 168 170 181 200 205 207
167 161 166 156 139 145 135 139 136 139 157 174 180 172 172 147 166 171 184 178 166 174 166 168 167 170 189 184 185 198 211 219
173 170 171 151 137 137 146 138 138 156 157 162 160 166 162 182 186 176 175 143 156 176 180 178 175 179 223 226 228 230 169 194
173 174 173 166 153 160 163 166 171 176 172 163 164 159 171 207 168 175 165 178 167 190 192 195 206 187 190 246 277 299 246 191
173 175 174 175 166 161 162 176 177 175 175 163 179 186 183 201 193 205 179 196 191 199 189 203 204 236 196 202 228 243 249 262
172 177 176 174 172 164 172 174 179 175 188 178 186 184 196 203 211 199 193 205 206 202 192 204 222 213 236 256 244 239 229 234
174 179 177 177 175 178 176 179 184 179 184 188 185 186 198 213 212 190 200 212 208 199 202 212 212 222 223 235 246 254 256 265
183 186 182 180 180 186 187 180 192 187 185 184 191 192 197 208 198 206 203 205 210 204 209 213 217 218 229 231 238 237 237 242